Weather History for Omaha Offutt, NE

Change the Weather History Date:

Sunday, September 22, 2013

  Actual Average Record
Temperature  
Mean Temperature 65 °F -  
Max Temperature 80 °F 72 °F 84 °F (2004)
Min Temperature 50 °F 51 °F 34 °F (2012)
Growing Degree Days 15 (Base 50)    
Moisture  
Dew Point 53 °F    
Average Humidity 67    
Maximum Humidity 99    
Minimum Humidity 35    
Precipitation  
Precipitation 0.00 in - - ()
Sea Level Pressure  
Sea Level Pressure 29.88 in    
Wind  
Wind Speed 9 mph (SE)    
Max Wind Speed 23 mph    
Max Gust Speed 30 mph    
Visibility 10 miles    
Events Rain    
Averages and records for this station are not official NWS values.
T = Trace of Precipitation, MM = Missing Value Source: NWS Daily Summary

Daily Weather History Graph

Daily Weather History Graph

Search for Another Location

Airport:

Trip Planner

Search our weather history database for the weather conditions in past years. The results will help you decide how hot, cold, wet, or windy it might be!

Date:

Astronomy

Sep. 22, 2013 Rise Set
Actual Time 7:11 AM CDT 7:20 PM CDT
Civil Twilight 6:43 AM CDT 7:47 PM CDT
Nautical Twilight 6:11 AM CDT 8:19 PM CDT
Astronomical Twilight 5:38 AM CDT 8:52 PM CDT
Moon 9:08 PM CDT (9/22) 10:34 AM CDT (9/22)
Length of Visible Light 13h 03m
Length of Day
12h 08m
Waning Gibbous, 88% of the Moon is Illuminated
Sep 22
Waning Gibbous
Sep 26
Last Quarter
Oct 4
New
Oct 11
First Quarter
Oct 18
Full

Hourly Weather History & Observations

Time (CDT) Temp. Heat Index Dew Point Humidity Pressure Visibility Wind Dir Wind Speed Gust Speed Precip Events Conditions
12:58 AM 57.2 °F - 51.4 °F 81% 29.89 in 10.0 mi East 8.1 mph - N/A   Clear
1:58 AM 56.7 °F - 51.8 °F 84% 29.89 in 10.0 mi East 6.9 mph - N/A   Clear
2:58 AM 55.8 °F - 52.0 °F 87% 29.89 in 10.0 mi ESE 9.2 mph - N/A   Clear
3:58 AM 55.9 °F - 51.8 °F 86% 29.89 in 10.0 mi ESE 8.1 mph - N/A   Clear
4:58 AM 53.8 °F - 51.1 °F 91% 29.88 in 10.0 mi East 5.8 mph - N/A   Clear
5:58 AM 54.3 °F - 51.3 °F 89% 29.89 in 10.0 mi ESE 4.6 mph - N/A   Clear
6:58 AM 50.2 °F - 48.9 °F 95% 29.91 in 10.0 mi East 3.5 mph - N/A   Clear
7:58 AM 52.2 °F - 51.8 °F 99% 29.91 in 10.0 mi East 4.6 mph - N/A   Clear
8:58 AM 59.9 °F - 55.0 °F 84% 29.92 in 10.0 mi ESE 5.8 mph - N/A   Clear
9:56 AM 66.2 °F - 57.2 °F 73% 29.92 in 10.0 mi Variable 5.8 mph - N/A Rain Light Rain
9:58 AM 66.2 °F - 57.2 °F 73% 29.93 in 10.0 mi SE 6.9 mph - N/A Rain Light Rain
10:02 AM 66.2 °F - 55.4 °F 68% 29.92 in 10.0 mi SE 5.8 mph - N/A   Clear
10:03 AM 66.2 °F - 55.4 °F 68% 29.92 in 10.0 mi SE 5.8 mph - N/A   Clear
10:58 AM 71.1 °F - 56.8 °F 61% 29.92 in 10.0 mi SSE 10.4 mph - 0.00 in   Clear
11:58 AM 74.5 °F - 58.8 °F 58% 29.90 in 10.0 mi SSE 10.4 mph - N/A   Clear
12:58 PM 79.7 °F - 52.0 °F 38% 29.88 in 10.0 mi South 12.7 mph 24.2 mph N/A   Clear
1:58 PM 80.1 °F 80.1 °F 54.5 °F 41% 29.86 in 10.0 mi SSE 17.3 mph 23.0 mph N/A   Clear
2:58 PM 80.1 °F - 52.5 °F 38% 29.84 in 10.0 mi SE 23.0 mph 28.8 mph N/A   Clear
3:58 PM 79.9 °F - 50.2 °F 35% 29.82 in 10.0 mi SE 19.6 mph 29.9 mph N/A   Clear
4:58 PM 78.8 °F - 51.4 °F 38% 29.82 in 10.0 mi SE 20.7 mph 29.9 mph N/A   Clear
5:58 PM 77.0 °F - 51.3 °F 40% 29.82 in 10.0 mi SSE 16.1 mph - N/A   Clear
6:58 PM 73.8 °F - 52.2 °F 47% 29.83 in 10.0 mi SSE 16.1 mph - N/A   Clear
7:58 PM 68.4 °F - 52.9 °F 58% 29.83 in 10.0 mi SE 10.4 mph - N/A   Clear
8:58 PM 65.3 °F - 52.7 °F 64% 29.83 in 10.0 mi SE 12.7 mph - N/A   Clear
9:58 PM 63.0 °F - 53.2 °F 71% 29.84 in 10.0 mi SE 10.4 mph - N/A   Clear
10:58 PM 61.9 °F - 52.0 °F 70% 29.85 in 10.0 mi SE 12.7 mph - N/A   Clear
11:58 PM 60.1 °F - 51.6 °F 74% 29.85 in 10.0 mi SE 11.5 mph - N/A   Clear